Find Kosmos-1791

NORAD ID: 17066 Int'l Des: 1986-086 Owner: VMF Country: SU operational
LEOCIRCULARPOLAR

Live Position

Loading 3D Globe...

About Kosmos-1791

Description loading...

Upcoming Passes

Passes for default location (London). Set your location on the main map for personalized predictions.

Altitude History

Loading altitude history...

Two-Line Element Set

1 17066U 86086A 26104.00437377 .00000085 00000-0 70902-4 0 9997
2 17066 82.9454 309.0595 0042010 59.7239 93.1502 13.76050102979366
Epoch: Apr 14, 2026 • Age: 10 hours

Current Status

Altitude 955.6 km
Velocity 7.39 km/s
Sub-Earth Point 22.38°N, 40.11°W
Launch Date Nov 13, 1986
Age 39.4 years
Type other

Technical Details

Classification Payload
Mass 800.00 kg
Dry Mass 800.00 kg
Total Mass 800.00 kg
Length 5.00 m
Diameter 2.10 m
Span 17.00 m
Shape Cyl + Ant
Manufacturer OAZ
Bus Type KAUR-1 11F643
Phase Status In Orbit
Owner/State VMF/SU

Most Searched